Tracking 18980 objects as of 19-Feb-2018
HD Live streaming from Space Station
objects crossing your sky now

CZ-3B DEB

Track CZ-3B DEB now!


NORAD ID: 40167
Int'l Code: 2010-042U
Perigee: 1,315.1 km
Apogee: 40,329.2 km
Inclination: 26.8 °
Period: 743.8 minutes
Semi major axis: 27193 km
RCS: Unknown
Launch date: September 4, 2010
Source: People's Republic of China (PRC)
Launch site: Xichang Space Center, China (XSC)

Note: This is SATELLITE DEBRIS
aabbcc
Your satellite tracking list
Your tracking list is empty




NASA's NSSDC Master Catalog

Two Line Element Set (TLE):
1 40167U 10042U   18048.69548280  .00000006  00000-0  00000+0 0  9993
2 40167  26.7994 286.7539 7173511 191.1545 134.1202  1.93603677 37621
Source of the keplerian elements: AFSPC